Location: Newark
(49.8969°N, 3.3422°E)
Time: 00:04:49
(UTC+00:00)

A-11 Canister half - Pass Details

Date: 29 January 2020
Orbit: 1517 x 1683 km, 47.2° (Epoch: 26 February)

Event Time Altitude Azimuth Distance (km) Brightness Sun altitude
Rises 20:48:04 0° 198° (SSW) 4,783 11.6 -40.2°
Enters shadow 20:49:31 - 195° (SSW) 4,379 11.3 -40.4°
Reaches altitude 10° 20:51:49 10° 187° (S) 3,775 - -40.8°
Maximum altitude 20:59:14 27° 135° (SE) 2,657 - -41.9°
Drops below altitude 10° 21:06:31 10° 83° (E) 3,702 - -42.9°
Sets 21:10:08 0° 72° (ENE) 4,675 - -43.4°
